Nausori, Fiji

11:35 AM +13 on November 23, 2017 (GMT +1300)
Nausori International

Weather History for NFNA - January, 2013

Change the Weather History Date:

Wednesday, January 16, 2013

  Actual Average Record
Temperature  
Mean Temperature 82 °F -  
Max Temperature 86 °F 88 °F - ()
Min Temperature 77 °F 75 °F - ()
Cooling Degree Days 16    
Growing Degree Days 32 (Base 50)    
Moisture  
Dew Point 77 °F    
Average Humidity 89    
Maximum Humidity 100    
Minimum Humidity 71    
Precipitation  
Precipitation 0.08 in 0.39 in - ()
Sea Level Pressure  
Sea Level Pressure 29.66 in    
Wind  
Wind Speed 3 mph ()    
Max Wind Speed 9 mph    
Max Gust Speed -    
Visibility 15.0 miles    
Events Rain    
T = Trace of Precipitation, MM = Missing Value Source: Averaged Metar Reports

Daily Weather History Graph

Daily Weather History Graph

Search for Another Location

Airport or City:

Trip Planner

Search our weather history database for the weather conditions in past years. The results will help you decide how hot, cold, wet, or windy it might be!

Date:

Astronomy

Jan. 16, 2013 Rise Set
Actual Time 6:42 AM +13 7:47 PM +13
Civil Twilight 6:19 AM +13 8:11 PM +13
Nautical Twilight 5:51 AM +13 8:39 PM +13
Astronomical Twilight 5:22 AM +13 9:08 PM +13
Moon 10:40 AM +13 (1/16) 10:58 PM +13 (1/16)
Length of Visible Light 13h 52m
Length of Day
13h 05m
Waxing Crescent, 21% of the Moon is Illuminated
Jan 16
Waxing Crescent
Jan 19
First Quarter
Jan 27
Full
Feb 4
Last Quarter
Feb 10
New

Hourly Weather History & Observations

Time (+13) Temp. Heat Index Dew Point Humidity Pressure Visibility Wind Dir Wind Speed Gust Speed Precip Events Conditions
1:00 AM 77 °F - 77 °F 100% 29.66 in 12 mi Calm Calm - - Rain Light Rain Showers
2:00 AM 77.0 °F - 77.0 °F 100% 29.62 in 12.4 mi Calm Calm - N/A   Mostly Cloudy
3:00 AM 77.0 °F - 77.0 °F 100% 29.62 in 12.4 mi Calm Calm - N/A Rain Light Rain Showers
4:00 AM 77 °F - 77 °F 99% 29.64 in 12 mi Calm Calm - - Rain Light Rain Showers
4:00 AM 77.0 °F - 77.0 °F 100% 29.62 in 18.6 mi Calm Calm - N/A   Mostly Cloudy
5:00 AM 77.0 °F - 77.0 °F 100% 29.62 in 18.6 mi Calm Calm - N/A   Mostly Cloudy
6:00 AM 77.0 °F - 77.0 °F 100% 29.65 in 18.6 mi Calm Calm - N/A   Mostly Cloudy
7:00 AM 77 °F - 76 °F 95% 29.69 in 12 mi Calm Calm - - Rain Light Rain Showers
7:00 AM 77.0 °F - 75.2 °F 94% 29.68 in 28.0 mi Calm Calm - N/A   Mostly Cloudy
8:00 AM 77.0 °F - 75.2 °F 94% 29.68 in 18.6 mi Calm Calm - N/A Rain Light Rain Showers
9:00 AM 77.0 °F - 75.2 °F 94% 29.68 in 31.1 mi Calm Calm - N/A   Mostly Cloudy
10:00 AM 82 °F - 78 °F 83% 29.68 in 31 mi Calm Calm - - Rain Light Rain Showers
10:00 AM 82.4 °F 90.9 °F 77.0 °F 84% 29.68 in 31.1 mi Calm Calm - N/A   Mostly Cloudy
11:00 AM 84.2 °F 96.1 °F 78.8 °F 84% 29.65 in 31.1 mi SE 8.1 mph - N/A   Mostly Cloudy
12:00 PM 86.0 °F 99.3 °F 78.8 °F 79% 29.65 in 31.1 mi SE 8.1 mph - N/A   Mostly Cloudy
1:00 PM 86 °F - 79 °F 73% 29.66 in 31 mi SE 9.2 mph - -   Partly Cloudy
1:00 PM 86.0 °F 99.3 °F 78.8 °F 79% 29.65 in 31.1 mi SE 9.2 mph - N/A   Mostly Cloudy
2:00 PM 86.0 °F 99.3 °F 78.8 °F 79% 29.65 in 31.1 mi South 9.2 mph - N/A   Mostly Cloudy
3:00 PM 86.0 °F 99.3 °F 78.8 °F 79% 29.65 in 31.1 mi SSE 9.2 mph - N/A   Mostly Cloudy
4:00 PM 86 °F - 78 °F 71% 29.65 in 31 mi SSE 9.2 mph - -   Partly Cloudy
4:00 PM 86.0 °F 99.3 °F 78.8 °F 79% 29.65 in 31.1 mi SSE 9.2 mph - N/A   Scattered Clouds
5:00 PM 86.0 °F 96.9 °F 77.0 °F 74% 29.65 in 31.1 mi SSE 8.1 mph - N/A   Mostly Cloudy
6:00 PM 84.2 °F 94.1 °F 77.0 °F 79% 29.65 in 31.1 mi SSE 9.2 mph - N/A   Mostly Cloudy
7:00 PM 82 °F - 77 °F 80% 29.67 in 31 mi SSE 9.2 mph - -   Partly Cloudy
7:00 PM 82.4 °F 90.9 °F 77.0 °F 84% 29.65 in 31.1 mi SSE 9.2 mph - N/A   Scattered Clouds
8:00 PM 78.8 °F - 77.0 °F 94% 29.68 in 31.1 mi SSE 6.9 mph - N/A   Mostly Cloudy
9:00 PM 78.8 °F - 78.8 °F 100% 29.68 in 31.1 mi SSE 5.8 mph - N/A   Scattered Clouds
10:00 PM 79 °F - 77 °F 92% 29.70 in 31 mi SSE 5.8 mph - -   Partly Cloudy
10:00 PM 78.8 °F - 77.0 °F 94% 29.68 in 31.1 mi SSE 5.8 mph - N/A   Scattered Clouds
11:00 PM 78.8 °F - 77.0 °F 94% 29.71 in 31.1 mi Calm Calm - N/A   Partly Cloudy